Year,Month,Day,Hour,Minute,Value (Times are PST for temperature in C)
2016,11,21,00,00,7.20
2016,11,21,00,01,7.20
2016,11,21,00,02,7.20
2016,11,21,00,03,7.20
2016,11,21,00,04,7.20
2016,11,21,00,05,7.20
2016,11,21,00,06,7.20
2016,11,21,00,07,7.10
2016,11,21,00,08,7.10
2016,11,21,00,09,7.10
2016,11,21,00,10,7.10
2016,11,21,00,11,7.10
2016,11,21,00,12,7.10
2016,11,21,00,13,7.10
2016,11,21,00,14,7.10
2016,11,21,00,15,7.10
2016,11,21,00,16,7.10
2016,11,21,00,17,7.00
2016,11,21,00,18,7.00
2016,11,21,00,19,7.00
2016,11,21,00,20,7.00
2016,11,21,00,21,7.00
2016,11,21,00,22,7.00
2016,11,21,00,23,6.90
2016,11,21,00,24,6.90
2016,11,21,00,25,6.90
2016,11,21,00,26,6.80
2016,11,21,00,27,6.80
2016,11,21,00,28,6.80
2016,11,21,00,29,6.80
2016,11,21,00,30,6.80
2016,11,21,00,31,6.70
2016,11,21,00,32,6.70
2016,11,21,00,33,6.70
2016,11,21,00,34,6.70
2016,11,21,00,35,6.80
2016,11,21,00,36,6.80
2016,11,21,00,37,6.80
2016,11,21,00,38,6.70
2016,11,21,00,39,6.70
2016,11,21,00,40,6.70
2016,11,21,00,41,6.70
2016,11,21,00,42,6.70
2016,11,21,00,43,6.70
2016,11,21,00,44,6.80
2016,11,21,00,45,6.80
2016,11,21,00,46,6.80
2016,11,21,00,47,6.80
2016,11,21,00,48,6.80
2016,11,21,00,49,6.90
2016,11,21,00,50,6.90
2016,11,21,00,51,6.90
2016,11,21,00,52,6.90
2016,11,21,00,53,6.90
2016,11,21,00,54,6.90
2016,11,21,00,55,6.90
2016,11,21,00,56,6.90
2016,11,21,00,57,6.80
2016,11,21,00,58,6.80
2016,11,21,00,59,6.80
2016,11,21,01,00,6.80
2016,11,21,01,01,6.80
2016,11,21,01,02,6.80
2016,11,21,01,03,6.80
2016,11,21,01,04,6.80
2016,11,21,01,05,6.80
2016,11,21,01,06,6.80
2016,11,21,01,07,6.80
2016,11,21,01,08,6.80
2016,11,21,01,09,6.80
2016,11,21,01,10,6.80
2016,11,21,01,11,6.70
2016,11,21,01,12,6.70
2016,11,21,01,13,6.70
2016,11,21,01,14,6.70
2016,11,21,01,15,6.70
2016,11,21,01,16,6.70
2016,11,21,01,17,6.70
2016,11,21,01,18,6.60
2016,11,21,01,19,6.60
2016,11,21,01,20,6.60
2016,11,21,01,21,6.50
2016,11,21,01,22,6.50
2016,11,21,01,23,6.50
2016,11,21,01,24,6.60
2016,11,21,01,25,6.60
2016,11,21,01,26,6.70
2016,11,21,01,27,6.70
2016,11,21,01,28,6.70
2016,11,21,01,29,6.80
2016,11,21,01,30,6.80
2016,11,21,01,31,6.80
2016,11,21,01,32,6.80
2016,11,21,01,33,6.90
2016,11,21,01,34,6.90
2016,11,21,01,35,6.90
2016,11,21,01,36,6.90
2016,11,21,01,37,6.90
2016,11,21,01,38,7.00
2016,11,21,01,39,7.00
2016,11,21,01,40,7.00
2016,11,21,01,41,7.00
2016,11,21,01,42,7.00
2016,11,21,01,43,7.00
2016,11,21,01,44,7.10
2016,11,21,01,45,7.10
2016,11,21,01,46,7.10
2016,11,21,01,47,7.10
2016,11,21,01,48,7.20
2016,11,21,01,49,7.20
2016,11,21,01,50,7.20
2016,11,21,01,51,7.20
2016,11,21,01,52,7.10
2016,11,21,01,53,7.10
2016,11,21,01,54,7.10
2016,11,21,01,55,7.10
2016,11,21,01,56,7.10
2016,11,21,01,57,7.10
2016,11,21,01,58,7.10
2016,11,21,01,59,7.10
2016,11,21,02,00,7.10
2016,11,21,02,01,7.10
2016,11,21,02,02,7.20
2016,11,21,02,03,7.20
2016,11,21,02,04,7.20
2016,11,21,02,05,7.20
2016,11,21,02,06,7.20
2016,11,21,02,07,7.20
2016,11,21,02,08,7.10
2016,11,21,02,09,7.10
2016,11,21,02,10,7.10
2016,11,21,02,11,7.10
2016,11,21,02,12,7.10
2016,11,21,02,13,7.10
2016,11,21,02,14,7.00
2016,11,21,02,15,7.00
2016,11,21,02,16,6.90
2016,11,21,02,17,6.90
2016,11,21,02,18,6.90
2016,11,21,02,19,6.90
2016,11,21,02,20,6.90
2016,11,21,02,21,6.90
2016,11,21,02,22,6.90
2016,11,21,02,23,7.00
2016,11,21,02,24,7.00
2016,11,21,02,25,7.00
2016,11,21,02,26,6.90
2016,11,21,02,27,6.90
2016,11,21,02,28,7.00
2016,11,21,02,29,7.00
2016,11,21,02,30,7.00
2016,11,21,02,31,7.00
2016,11,21,02,32,7.00
2016,11,21,02,33,7.00
2016,11,21,02,34,7.00
2016,11,21,02,35,7.10
2016,11,21,02,36,7.10
2016,11,21,02,37,7.20
2016,11,21,02,38,7.20
2016,11,21,02,39,7.20
2016,11,21,02,40,7.20
2016,11,21,02,41,7.20
2016,11,21,02,42,7.10
2016,11,21,02,43,7.10
2016,11,21,02,44,7.00
2016,11,21,02,45,6.90
2016,11,21,02,46,6.90
2016,11,21,02,47,6.90
2016,11,21,02,48,6.90
2016,11,21,02,49,6.80
2016,11,21,02,50,6.80
2016,11,21,02,51,6.80
2016,11,21,02,52,6.80
2016,11,21,02,53,6.80
2016,11,21,02,54,6.80
2016,11,21,02,55,6.90
2016,11,21,02,56,6.90
2016,11,21,02,57,6.90
2016,11,21,02,58,6.90
2016,11,21,02,59,6.90
2016,11,21,03,00,7.00
2016,11,21,03,01,7.00
2016,11,21,03,02,7.00
2016,11,21,03,03,7.00
2016,11,21,03,04,7.00
2016,11,21,03,05,7.00
2016,11,21,03,06,7.00
2016,11,21,03,07,7.00
2016,11,21,03,08,7.00
2016,11,21,03,09,7.00
2016,11,21,03,10,6.90
2016,11,21,03,11,7.00
2016,11,21,03,12,7.00
2016,11,21,03,13,7.00
2016,11,21,03,14,7.00
2016,11,21,03,15,7.00
2016,11,21,03,16,7.10
2016,11,21,03,17,7.10
2016,11,21,03,18,7.10
2016,11,21,03,19,7.20
2016,11,21,03,20,7.20
2016,11,21,03,21,7.20
2016,11,21,03,22,7.20
2016,11,21,03,23,7.20
2016,11,21,03,24,7.30
2016,11,21,03,25,7.30
2016,11,21,03,26,7.20
2016,11,21,03,27,7.20
2016,11,21,03,28,7.20
2016,11,21,03,29,7.20
2016,11,21,03,30,7.20
2016,11,21,03,31,7.20
2016,11,21,03,32,7.30
2016,11,21,03,33,7.30
2016,11,21,03,34,7.30
2016,11,21,03,35,7.30
2016,11,21,03,36,7.30
2016,11,21,03,37,7.30
2016,11,21,03,38,7.40
2016,11,21,03,39,7.40
2016,11,21,03,40,7.40
2016,11,21,03,41,7.40
2016,11,21,03,42,7.50
2016,11,21,03,43,7.50
2016,11,21,03,44,7.60
2016,11,21,03,45,7.60
2016,11,21,03,46,7.60
2016,11,21,03,47,7.60
2016,11,21,03,48,7.60
2016,11,21,03,49,7.70
2016,11,21,03,50,7.70
2016,11,21,03,51,7.70
2016,11,21,03,52,7.70
2016,11,21,03,53,7.70
2016,11,21,03,54,7.70
2016,11,21,03,55,7.70
2016,11,21,03,56,7.70
2016,11,21,03,57,7.70
2016,11,21,03,58,7.70
2016,11,21,03,59,7.70
2016,11,21,04,00,7.70
2016,11,21,04,01,7.70
2016,11,21,04,02,7.80
2016,11,21,04,03,7.80
2016,11,21,04,04,7.80
2016,11,21,04,05,7.80
2016,11,21,04,06,7.80
2016,11,21,04,07,7.80
2016,11,21,04,08,7.80
2016,11,21,04,09,7.80
2016,11,21,04,10,7.80
2016,11,21,04,11,7.80
2016,11,21,04,12,7.90
2016,11,21,04,13,7.90
2016,11,21,04,14,7.90
2016,11,21,04,15,7.90
2016,11,21,04,16,7.90
2016,11,21,04,17,7.90
2016,11,21,04,18,7.90
2016,11,21,04,19,7.90
2016,11,21,04,20,7.90
2016,11,21,04,21,7.90
2016,11,21,04,22,7.90
2016,11,21,04,23,7.90
2016,11,21,04,24,7.90
2016,11,21,04,25,7.90
2016,11,21,04,26,7.90
2016,11,21,04,27,7.90
2016,11,21,04,28,7.90
2016,11,21,04,29,8.00
2016,11,21,04,30,8.10
2016,11,21,04,31,8.20
2016,11,21,04,32,8.30
2016,11,21,04,33,8.40
2016,11,21,04,34,8.40
2016,11,21,04,35,8.50
2016,11,21,04,36,8.60
2016,11,21,04,37,8.60
2016,11,21,04,38,8.60
2016,11,21,04,39,8.60
2016,11,21,04,40,8.50
2016,11,21,04,41,8.50
2016,11,21,04,42,8.50
2016,11,21,04,43,8.50
2016,11,21,04,44,8.40
2016,11,21,04,45,8.40
2016,11,21,04,46,8.40
2016,11,21,04,47,8.40
2016,11,21,04,48,8.30
2016,11,21,04,49,8.30
2016,11,21,04,50,8.30
2016,11,21,04,51,8.30
2016,11,21,04,52,8.30
2016,11,21,04,53,8.30
2016,11,21,04,54,8.20
2016,11,21,04,55,8.20
2016,11,21,04,56,8.20
2016,11,21,04,57,8.20
2016,11,21,04,58,8.20
2016,11,21,04,59,8.20
2016,11,21,05,00,8.20
2016,11,21,05,01,8.20
2016,11,21,05,02,8.20
2016,11,21,05,03,8.20
2016,11,21,05,04,8.20
2016,11,21,05,05,8.20
2016,11,21,05,06,8.20
2016,11,21,05,07,8.20
2016,11,21,05,08,8.20
2016,11,21,05,09,8.20
2016,11,21,05,10,8.20
2016,11,21,05,11,8.20
2016,11,21,05,12,8.20
2016,11,21,05,13,8.20
2016,11,21,05,14,8.10
2016,11,21,05,15,8.10
2016,11,21,05,16,8.10
2016,11,21,05,17,8.10
2016,11,21,05,18,8.00
2016,11,21,05,19,8.00
2016,11,21,05,20,7.90
2016,11,21,05,21,7.90
2016,11,21,05,22,7.90
2016,11,21,05,23,7.90
2016,11,21,05,24,7.80
2016,11,21,05,25,7.80
2016,11,21,05,26,7.70
2016,11,21,05,27,7.70
2016,11,21,05,28,7.70
2016,11,21,05,29,7.60
2016,11,21,05,30,7.60
2016,11,21,05,31,7.60
2016,11,21,05,32,7.60
2016,11,21,05,33,7.60
2016,11,21,05,34,7.60
2016,11,21,05,35,7.60
2016,11,21,05,36,7.50
2016,11,21,05,37,7.50
2016,11,21,05,38,7.50
2016,11,21,05,39,7.50
2016,11,21,05,40,7.40
2016,11,21,05,41,7.40
2016,11,21,05,42,7.40
2016,11,21,05,43,7.40
2016,11,21,05,44,7.40
2016,11,21,05,45,7.40
2016,11,21,05,46,7.40
2016,11,21,05,47,7.30
2016,11,21,05,48,7.30
2016,11,21,05,49,7.30
2016,11,21,05,50,7.30
2016,11,21,05,51,7.30
2016,11,21,05,52,7.30
2016,11,21,05,53,7.30
2016,11,21,05,54,7.30
2016,11,21,05,55,7.30
2016,11,21,05,56,7.30
2016,11,21,05,57,7.20
2016,11,21,05,58,7.20
2016,11,21,05,59,7.20
2016,11,21,06,00,7.20
2016,11,21,06,01,7.20
2016,11,21,06,02,7.30
2016,11,21,06,03,7.30
2016,11,21,06,04,7.30
2016,11,21,06,05,7.30
2016,11,21,06,06,7.30
2016,11,21,06,07,7.30
2016,11,21,06,08,7.30
2016,11,21,06,09,7.30
2016,11,21,06,10,7.30
2016,11,21,06,11,7.30
2016,11,21,06,12,7.30
2016,11,21,06,13,7.30
2016,11,21,06,14,7.30
2016,11,21,06,15,7.30
2016,11,21,06,16,7.30
2016,11,21,06,17,7.30
2016,11,21,06,18,7.30
2016,11,21,06,19,7.40
2016,11,21,06,20,7.40
2016,11,21,06,21,7.40
2016,11,21,06,22,7.50
2016,11,21,06,23,7.50
2016,11,21,06,24,7.60
2016,11,21,06,25,7.70
2016,11,21,06,26,7.80
2016,11,21,06,27,7.80
2016,11,21,06,28,7.90
2016,11,21,06,29,7.90
2016,11,21,06,30,8.00
2016,11,21,06,31,7.90
2016,11,21,06,32,7.90
2016,11,21,06,33,7.80
2016,11,21,06,34,7.70
2016,11,21,06,35,7.60
2016,11,21,06,36,7.60
2016,11,21,06,37,7.50
2016,11,21,06,38,7.50
2016,11,21,06,39,7.50
2016,11,21,06,40,7.50
2016,11,21,06,41,7.50
2016,11,21,06,42,7.40
2016,11,21,06,43,7.40
2016,11,21,06,44,7.40
2016,11,21,06,45,7.30
2016,11,21,06,46,7.30
2016,11,21,06,47,7.20
2016,11,21,06,48,7.20
2016,11,21,06,49,7.20
2016,11,21,06,50,7.20
2016,11,21,06,51,7.20
2016,11,21,06,52,7.20
2016,11,21,06,53,7.20
2016,11,21,06,54,7.20
2016,11,21,06,55,7.20
2016,11,21,06,56,7.20
2016,11,21,06,57,7.20
2016,11,21,06,58,7.20
2016,11,21,06,59,7.20
2016,11,21,07,00,7.10
2016,11,21,07,01,7.10
2016,11,21,07,02,7.00
2016,11,21,07,03,6.90
2016,11,21,07,04,6.90
2016,11,21,07,05,6.80
2016,11,21,07,06,6.80
2016,11,21,07,07,6.80
2016,11,21,07,08,6.70
2016,11,21,07,09,6.70
2016,11,21,07,10,6.60
2016,11,21,07,11,6.60
2016,11,21,07,12,6.50
2016,11,21,07,13,6.50
2016,11,21,07,14,6.40
2016,11,21,07,15,6.40
2016,11,21,07,16,6.30
2016,11,21,07,17,6.30
2016,11,21,07,18,6.20
2016,11,21,07,19,6.20
2016,11,21,07,20,6.20
2016,11,21,07,21,6.20
2016,11,21,07,22,6.20
2016,11,21,07,23,6.10
2016,11,21,07,24,6.10
2016,11,21,07,25,6.10
2016,11,21,07,26,6.10
2016,11,21,07,27,6.10
2016,11,21,07,28,6.10
2016,11,21,07,29,6.10
2016,11,21,07,30,6.10
2016,11,21,07,31,6.00
2016,11,21,07,32,6.00
2016,11,21,07,33,5.90
2016,11,21,07,34,5.90
2016,11,21,07,35,5.80
2016,11,21,07,36,5.80
2016,11,21,07,37,5.80
2016,11,21,07,38,5.70
2016,11,21,07,39,5.70
2016,11,21,07,40,5.70
2016,11,21,07,41,5.70
2016,11,21,07,42,5.70
2016,11,21,07,43,5.70
2016,11,21,07,44,5.70
2016,11,21,07,45,5.70
2016,11,21,07,46,5.70
2016,11,21,07,47,5.70
2016,11,21,07,48,5.70
2016,11,21,07,49,5.70
2016,11,21,07,50,5.70
2016,11,21,07,51,5.70
2016,11,21,07,52,5.60
2016,11,21,07,53,5.60
2016,11,21,07,54,5.60
2016,11,21,07,55,5.60
2016,11,21,07,56,5.50
2016,11,21,07,57,5.50
2016,11,21,07,58,5.40
2016,11,21,07,59,5.40
2016,11,21,08,00,5.40
2016,11,21,08,01,5.30
2016,11,21,08,02,5.30
2016,11,21,08,03,5.20
2016,11,21,08,04,5.20
2016,11,21,08,05,5.20
2016,11,21,08,06,5.30
2016,11,21,08,07,5.30
2016,11,21,08,08,5.30
2016,11,21,08,09,5.40
2016,11,21,08,10,5.40
2016,11,21,08,11,5.40
2016,11,21,08,12,5.40
2016,11,21,08,13,5.40
2016,11,21,08,14,5.40
2016,11,21,08,15,5.40
2016,11,21,08,16,5.40
2016,11,21,08,17,5.40
2016,11,21,08,18,5.40
2016,11,21,08,19,5.40
2016,11,21,08,20,5.40
2016,11,21,08,21,5.40
2016,11,21,08,22,5.50
2016,11,21,08,23,5.50
2016,11,21,08,24,5.50
2016,11,21,08,25,5.60
2016,11,21,08,26,5.60
2016,11,21,08,27,5.60
2016,11,21,08,28,5.60
2016,11,21,08,29,5.70
2016,11,21,08,30,5.70
2016,11,21,08,31,5.70
2016,11,21,08,32,5.70
2016,11,21,08,33,5.80
2016,11,21,08,34,5.80
2016,11,21,08,35,5.80
2016,11,21,08,36,5.80
2016,11,21,08,37,5.90
2016,11,21,08,38,5.90
2016,11,21,08,39,5.90
2016,11,21,08,40,5.90
2016,11,21,08,41,6.00
2016,11,21,08,42,6.00
2016,11,21,08,43,6.00
2016,11,21,08,44,6.10
2016,11,21,08,45,6.10
2016,11,21,08,46,6.20
2016,11,21,08,47,6.20
2016,11,21,08,48,6.30
2016,11,21,08,49,6.30
2016,11,21,08,50,6.40
2016,11,21,08,51,6.40
2016,11,21,08,52,6.50
2016,11,21,08,53,6.60
2016,11,21,08,54,6.70
2016,11,21,08,55,6.70
2016,11,21,08,56,6.80
2016,11,21,08,57,6.90
2016,11,21,08,58,6.90
2016,11,21,08,59,7.00
2016,11,21,09,00,7.10
2016,11,21,09,01,7.20
2016,11,21,09,02,7.30
2016,11,21,09,03,7.40
2016,11,21,09,04,7.50
2016,11,21,09,05,7.60
2016,11,21,09,06,7.80
2016,11,21,09,07,7.90
2016,11,21,09,08,8.00
2016,11,21,09,09,8.20
2016,11,21,09,10,8.30
2016,11,21,09,11,8.50
2016,11,21,09,12,8.60
2016,11,21,09,13,8.70
2016,11,21,09,14,8.80
2016,11,21,09,15,8.90
2016,11,21,09,16,9.00
2016,11,21,09,17,9.10
2016,11,21,09,18,9.20
2016,11,21,09,19,9.30
2016,11,21,09,20,9.40
2016,11,21,09,21,9.50
2016,11,21,09,22,9.60
2016,11,21,09,23,9.70
2016,11,21,09,24,9.80
2016,11,21,09,25,9.90
2016,11,21,09,26,9.90
2016,11,21,09,27,9.90
2016,11,21,09,28,9.80
2016,11,21,09,29,9.80
2016,11,21,09,30,9.90
2016,11,21,09,31,9.90
2016,11,21,09,32,10.00
2016,11,21,09,33,10.00
2016,11,21,09,34,10.10
2016,11,21,09,35,10.10
2016,11,21,09,36,10.10
2016,11,21,09,37,10.10
2016,11,21,09,38,10.20
2016,11,21,09,39,10.20
2016,11,21,09,40,10.20
2016,11,21,09,41,10.20
2016,11,21,09,42,10.20
2016,11,21,09,43,10.20
2016,11,21,09,44,10.10
2016,11,21,09,45,10.10
2016,11,21,09,46,10.10
2016,11,21,09,47,10.10
2016,11,21,09,48,10.10
2016,11,21,09,49,10.00
2016,11,21,09,50,10.00
2016,11,21,09,51,10.00
2016,11,21,09,52,10.10
2016,11,21,09,53,10.10
2016,11,21,09,54,10.10
2016,11,21,09,55,10.10
2016,11,21,09,56,10.20
2016,11,21,09,57,10.20
2016,11,21,09,58,10.20
2016,11,21,09,59,10.20
2016,11,21,10,00,10.30
2016,11,21,10,01,10.30
2016,11,21,10,02,10.30
2016,11,21,10,03,10.30
2016,11,21,10,04,10.30
2016,11,21,10,05,10.30
2016,11,21,10,06,10.30
2016,11,21,10,07,10.40
2016,11,21,10,08,10.40
2016,11,21,10,09,10.40
2016,11,21,10,10,10.40
2016,11,21,10,11,10.50
2016,11,21,10,12,10.50
2016,11,21,10,13,10.50
2016,11,21,10,14,10.50
2016,11,21,10,15,10.40
2016,11,21,10,16,10.40
2016,11,21,10,17,10.40
2016,11,21,10,18,10.40
2016,11,21,10,19,10.40
2016,11,21,10,20,10.40
2016,11,21,10,21,10.40
2016,11,21,10,22,10.40
2016,11,21,10,23,10.50
2016,11,21,10,24,10.50
2016,11,21,10,25,10.50
2016,11,21,10,26,10.50
2016,11,21,10,27,10.60
2016,11,21,10,28,10.60
2016,11,21,10,29,10.60
2016,11,21,10,30,10.60
2016,11,21,10,31,10.60
2016,11,21,10,32,10.70
2016,11,21,10,33,10.70
2016,11,21,10,34,10.70
2016,11,21,10,35,10.80
2016,11,21,10,36,10.80
2016,11,21,10,37,10.80
2016,11,21,10,38,10.80
2016,11,21,10,39,10.80
2016,11,21,10,40,10.90
2016,11,21,10,41,10.90
2016,11,21,10,42,10.90
2016,11,21,10,43,10.90
2016,11,21,10,44,10.90
2016,11,21,10,45,10.90
2016,11,21,10,46,11.00
2016,11,21,10,47,11.00
2016,11,21,10,48,11.00
2016,11,21,10,49,11.10
2016,11,21,10,50,11.10
2016,11,21,10,51,11.10
2016,11,21,10,52,11.10
2016,11,21,10,53,11.20
2016,11,21,10,54,11.20
2016,11,21,10,55,11.20
2016,11,21,10,56,11.20
2016,11,21,10,57,11.20
2016,11,21,10,58,11.30
2016,11,21,10,59,11.30
2016,11,21,11,00,11.30
2016,11,21,11,01,11.30
2016,11,21,11,02,11.30
2016,11,21,11,03,11.30
2016,11,21,11,04,11.30
2016,11,21,11,05,11.30
2016,11,21,11,06,11.30
2016,11,21,11,07,11.40
2016,11,21,11,08,11.40
2016,11,21,11,09,11.40
2016,11,21,11,10,11.40
2016,11,21,11,11,11.40
2016,11,21,11,12,11.40
2016,11,21,11,13,11.40
2016,11,21,11,14,11.40
2016,11,21,11,15,11.40
2016,11,21,11,16,11.40
2016,11,21,11,17,11.40
2016,11,21,11,18,11.40
2016,11,21,11,19,11.40
2016,11,21,11,20,11.40
2016,11,21,11,21,11.40
2016,11,21,11,22,11.40
2016,11,21,11,23,11.40
2016,11,21,11,24,11.40
2016,11,21,11,25,11.40
2016,11,21,11,26,11.50
2016,11,21,11,27,11.60
2016,11,21,11,28,11.60
2016,11,21,11,29,11.60
2016,11,21,11,30,11.60
2016,11,21,11,31,11.60
2016,11,21,11,32,11.60
2016,11,21,11,33,11.60
2016,11,21,11,34,11.50
2016,11,21,11,35,11.50
2016,11,21,11,36,11.50
2016,11,21,11,37,11.50
2016,11,21,11,38,11.50
2016,11,21,11,39,11.50
2016,11,21,11,40,11.60
2016,11,21,11,41,11.60
2016,11,21,11,42,11.60
2016,11,21,11,43,11.60
2016,11,21,11,44,11.50
2016,11,21,11,45,11.50
2016,11,21,11,46,11.40
2016,11,21,11,47,11.40
2016,11,21,11,48,11.40
2016,11,21,11,49,11.40
2016,11,21,11,50,11.40
2016,11,21,11,51,11.40
2016,11,21,11,52,11.40
2016,11,21,11,53,11.40
2016,11,21,11,54,11.40
2016,11,21,11,55,11.40
2016,11,21,11,56,11.50
2016,11,21,11,57,11.60
2016,11,21,11,58,11.60
2016,11,21,11,59,11.50
2016,11,21,12,00,11.50
2016,11,21,12,01,11.50
2016,11,21,12,02,11.60
2016,11,21,12,03,11.60
2016,11,21,12,04,11.60
2016,11,21,12,05,11.60
2016,11,21,12,06,11.60
2016,11,21,12,07,11.60
2016,11,21,12,08,11.60
2016,11,21,12,09,11.60
2016,11,21,12,10,11.60
2016,11,21,12,11,11.60
2016,11,21,12,12,11.60
2016,11,21,12,13,11.60
2016,11,21,12,14,11.60
2016,11,21,12,15,11.70
2016,11,21,12,16,11.70
2016,11,21,12,17,11.70
2016,11,21,12,18,11.70
2016,11,21,12,19,11.70
2016,11,21,12,20,11.70
2016,11,21,12,21,11.70
2016,11,21,12,22,11.70
2016,11,21,12,23,11.70
2016,11,21,12,24,11.70
2016,11,21,12,25,11.70
2016,11,21,12,26,11.70
2016,11,21,12,27,11.70
2016,11,21,12,28,11.70
2016,11,21,12,29,11.60
2016,11,21,12,30,11.60
2016,11,21,12,31,11.60
2016,11,21,12,32,11.60
2016,11,21,12,33,11.60
2016,11,21,12,34,11.60
2016,11,21,12,35,11.60
2016,11,21,12,36,11.60
2016,11,21,12,37,11.60
2016,11,21,12,38,11.60
2016,11,21,12,39,11.60
2016,11,21,12,40,11.60
2016,11,21,12,41,11.60
2016,11,21,12,42,11.60
2016,11,21,12,43,11.60
2016,11,21,12,44,11.60
2016,11,21,12,45,11.60
2016,11,21,12,46,11.60
2016,11,21,12,47,11.60
2016,11,21,12,48,11.60
2016,11,21,12,49,11.60
2016,11,21,12,50,11.60
2016,11,21,12,51,11.60
2016,11,21,12,52,11.70
2016,11,21,12,53,11.70
2016,11,21,12,54,11.70
2016,11,21,12,55,11.60
2016,11,21,12,56,11.70
2016,11,21,12,57,11.70
2016,11,21,12,58,11.70
2016,11,21,12,59,11.70
2016,11,21,13,00,11.70
2016,11,21,13,01,11.70
2016,11,21,13,02,11.70
2016,11,21,13,03,11.60
2016,11,21,13,04,11.70
2016,11,21,13,05,11.70
2016,11,21,13,06,11.70
2016,11,21,13,07,11.80
2016,11,21,13,08,11.80
2016,11,21,13,09,11.90
2016,11,21,13,10,11.90
2016,11,21,13,11,12.00
2016,11,21,13,12,12.00
2016,11,21,13,13,12.10
2016,11,21,13,14,12.10
2016,11,21,13,15,12.10
2016,11,21,13,16,12.10
2016,11,21,13,17,12.10
2016,11,21,13,18,12.10
2016,11,21,13,19,12.20
2016,11,21,13,20,12.20
2016,11,21,13,21,12.20
2016,11,21,13,22,12.20
2016,11,21,13,23,12.20
2016,11,21,13,24,12.20
2016,11,21,13,25,12.30
2016,11,21,13,26,12.30
2016,11,21,13,27,12.30
2016,11,21,13,28,12.30
2016,11,21,13,29,12.30
2016,11,21,13,30,12.30
2016,11,21,13,31,12.30
2016,11,21,13,32,12.30
2016,11,21,13,33,12.30
2016,11,21,13,34,12.30
2016,11,21,13,35,12.30
2016,11,21,13,36,12.30
2016,11,21,13,37,12.30
2016,11,21,13,38,12.30
2016,11,21,13,39,12.30
2016,11,21,13,40,12.30
2016,11,21,13,41,12.30
2016,11,21,13,42,12.30
2016,11,21,13,43,12.40
2016,11,21,13,44,12.40
2016,11,21,13,45,12.40
2016,11,21,13,46,12.30
2016,11,21,13,47,12.30
2016,11,21,13,48,12.30
2016,11,21,13,49,12.30
2016,11,21,13,50,12.20
2016,11,21,13,51,12.20
2016,11,21,13,52,12.20
2016,11,21,13,53,12.20
2016,11,21,13,54,12.20
2016,11,21,13,55,12.20
2016,11,21,13,56,12.20
2016,11,21,13,57,12.20
2016,11,21,13,58,12.20
2016,11,21,13,59,12.20
2016,11,21,14,00,12.20
2016,11,21,14,01,12.20
2016,11,21,14,02,12.20
2016,11,21,14,03,12.30
2016,11,21,14,04,12.20
2016,11,21,14,05,12.20
2016,11,21,14,06,12.30
2016,11,21,14,07,12.30
2016,11,21,14,08,12.30
2016,11,21,14,09,12.30
2016,11,21,14,10,12.30
2016,11,21,14,11,12.30
2016,11,21,14,12,12.30
2016,11,21,14,13,12.30
2016,11,21,14,14,12.30
2016,11,21,14,15,12.30
2016,11,21,14,16,12.30
2016,11,21,14,17,12.30
2016,11,21,14,18,12.30
2016,11,21,14,19,12.30
2016,11,21,14,20,12.30
2016,11,21,14,21,12.30
2016,11,21,14,22,12.30
2016,11,21,14,23,12.30
2016,11,21,14,24,12.30
2016,11,21,14,25,12.30
2016,11,21,14,26,12.30
2016,11,21,14,27,12.30
2016,11,21,14,28,12.30
2016,11,21,14,29,12.30
2016,11,21,14,30,12.30
2016,11,21,14,31,12.30
2016,11,21,14,32,12.30
2016,11,21,14,33,12.30
2016,11,21,14,34,12.30
2016,11,21,14,35,12.30
2016,11,21,14,36,12.30
2016,11,21,14,37,12.20
2016,11,21,14,38,12.20
2016,11,21,14,39,12.20
2016,11,21,14,40,12.20
2016,11,21,14,41,12.20
2016,11,21,14,42,12.20
2016,11,21,14,43,12.20
2016,11,21,14,44,12.10
2016,11,21,14,45,12.10
2016,11,21,14,46,12.10
2016,11,21,14,47,12.10
2016,11,21,14,48,12.10
2016,11,21,14,49,12.00
2016,11,21,14,50,12.00
2016,11,21,14,51,12.00
2016,11,21,14,52,11.90
2016,11,21,14,53,11.90
2016,11,21,14,54,11.90
2016,11,21,14,55,11.90
2016,11,21,14,56,11.80
2016,11,21,14,57,11.80
2016,11,21,14,58,11.80
2016,11,21,14,59,11.80
2016,11,21,15,00,11.80
2016,11,21,15,01,11.80
2016,11,21,15,02,11.80
2016,11,21,15,03,11.70
2016,11,21,15,04,11.70
2016,11,21,15,05,11.70
2016,11,21,15,06,11.70
2016,11,21,15,07,11.60
2016,11,21,15,08,11.60
2016,11,21,15,09,11.60
2016,11,21,15,10,11.60
2016,11,21,15,11,11.60
2016,11,21,15,12,11.50
2016,11,21,15,13,11.50
2016,11,21,15,14,11.50
2016,11,21,15,15,11.40
2016,11,21,15,16,11.40
2016,11,21,15,17,11.40
2016,11,21,15,18,11.40
2016,11,21,15,19,11.40
2016,11,21,15,20,11.30
2016,11,21,15,21,11.30
2016,11,21,15,22,11.30
2016,11,21,15,23,11.30
2016,11,21,15,24,11.30
2016,11,21,15,25,11.20
2016,11,21,15,26,11.20
2016,11,21,15,27,11.20
2016,11,21,15,28,11.20
2016,11,21,15,29,11.20
2016,11,21,15,30,11.20
2016,11,21,15,31,11.20
2016,11,21,15,32,11.20
2016,11,21,15,33,11.20
2016,11,21,15,34,11.20
2016,11,21,15,35,11.20
2016,11,21,15,36,11.20
2016,11,21,15,37,11.10
2016,11,21,15,38,11.10
2016,11,21,15,39,11.10
2016,11,21,15,40,11.10
2016,11,21,15,41,11.00
2016,11,21,15,42,11.00
2016,11,21,15,43,11.00
2016,11,21,15,44,11.00
2016,11,21,15,45,11.00
2016,11,21,15,46,11.00
2016,11,21,15,47,10.90
2016,11,21,15,48,10.90
2016,11,21,15,49,10.90
2016,11,21,15,50,10.90
2016,11,21,15,51,10.90
2016,11,21,15,52,10.90
2016,11,21,15,53,10.90
2016,11,21,15,54,10.80
2016,11,21,15,55,10.80
2016,11,21,15,56,10.80
2016,11,21,15,57,10.80
2016,11,21,15,58,10.70
2016,11,21,15,59,10.70
2016,11,21,16,00,10.70
2016,11,21,16,01,10.60
2016,11,21,16,02,10.60
2016,11,21,16,03,10.60
2016,11,21,16,04,10.50
2016,11,21,16,05,10.50
2016,11,21,16,06,10.40
2016,11,21,16,07,10.40
2016,11,21,16,08,10.40
2016,11,21,16,09,10.30
2016,11,21,16,10,10.30
2016,11,21,16,11,10.20
2016,11,21,16,12,10.20
2016,11,21,16,13,10.20
2016,11,21,16,14,10.10
2016,11,21,16,15,10.10
2016,11,21,16,16,10.10
2016,11,21,16,17,10.00
2016,11,21,16,18,10.00
2016,11,21,16,19,9.90
2016,11,21,16,20,9.90
2016,11,21,16,21,9.90
2016,11,21,16,22,9.80
2016,11,21,16,23,9.80
2016,11,21,16,24,9.80
2016,11,21,16,25,9.70
2016,11,21,16,26,9.70
2016,11,21,16,27,9.70
2016,11,21,16,28,9.60
2016,11,21,16,29,9.60
2016,11,21,16,30,9.50
2016,11,21,16,31,9.50
2016,11,21,16,32,9.40
2016,11,21,16,33,9.40
2016,11,21,16,34,9.40
2016,11,21,16,35,9.30
2016,11,21,16,36,9.30
2016,11,21,16,37,9.20
2016,11,21,16,38,9.20
2016,11,21,16,39,9.10
2016,11,21,16,40,9.10
2016,11,21,16,41,9.00
2016,11,21,16,42,9.00
2016,11,21,16,43,8.90
2016,11,21,16,44,8.90
2016,11,21,16,45,8.80
2016,11,21,16,46,8.80
2016,11,21,16,47,8.80
2016,11,21,16,48,8.70
2016,11,21,16,49,8.70
2016,11,21,16,50,8.70
2016,11,21,16,51,8.70
2016,11,21,16,52,8.60
2016,11,21,16,53,8.60
2016,11,21,16,54,8.60
2016,11,21,16,55,8.50
2016,11,21,16,56,8.50
2016,11,21,16,57,8.50
2016,11,21,16,58,8.40
2016,11,21,16,59,8.40
2016,11,21,17,00,8.40
2016,11,21,17,01,8.30
2016,11,21,17,02,8.30
2016,11,21,17,03,8.30
2016,11,21,17,04,8.30
2016,11,21,17,05,8.20
2016,11,21,17,06,8.20
2016,11,21,17,07,8.20
2016,11,21,17,08,8.20
2016,11,21,17,09,8.10
2016,11,21,17,10,8.10
2016,11,21,17,11,8.10
2016,11,21,17,12,8.10
2016,11,21,17,13,8.00
2016,11,21,17,14,8.00
2016,11,21,17,15,8.00
2016,11,21,17,16,8.00
2016,11,21,17,17,7.90
2016,11,21,17,18,7.90
2016,11,21,17,19,7.90
2016,11,21,17,20,7.90
2016,11,21,17,21,8.00
2016,11,21,17,22,8.00
2016,11,21,17,23,8.00
2016,11,21,17,24,7.90
2016,11,21,17,25,7.90
2016,11,21,17,26,7.90
2016,11,21,17,27,7.90
2016,11,21,17,28,7.90
2016,11,21,17,29,7.90
2016,11,21,17,30,7.80
2016,11,21,17,31,7.80
2016,11,21,17,32,7.70
2016,11,21,17,33,7.70
2016,11,21,17,34,7.70
2016,11,21,17,35,7.60
2016,11,21,17,36,7.60
2016,11,21,17,37,7.60
2016,11,21,17,38,7.50
2016,11,21,17,39,7.40
2016,11,21,17,40,7.40
2016,11,21,17,41,7.30
2016,11,21,17,42,7.30
2016,11,21,17,43,7.20
2016,11,21,17,44,7.20
2016,11,21,17,45,7.20
2016,11,21,17,46,7.20
2016,11,21,17,47,7.10
2016,11,21,17,48,7.10